period_start,C,m1,H,J0,J1,J2,J3,J4,J5,JA,JB,JC,JD,JJ,JK,JN,#
2017-08-26 00:00:24,0.00,0.19,0.00,21.89,26.25,29.24,13.97,44.05,1015.64,2037.98,3473.00,3046.82,3485.01,599.82,597.50,20.37,0000 0000 0000 0000 000000
2017-08-26 00:05:25,0.00,0.19,0.00,21.89,26.25,29.22,14.00,43.97,1015.64,2037.98,3473.00,3046.88,3485.01,599.92,597.57,20.42,0000 0000 0000 0000 000000
2017-08-26 00:10:26,0.01,0.19,0.00,21.89,26.23,29.24,13.98,44.08,1015.66,2037.98,3472.99,3046.64,3485.00,600.21,597.93,20.47,0000 0000 0000 0000 000000
2017-08-26 00:15:28,0.01,0.19,0.00,21.88,26.22,29.23,13.94,43.96,1015.65,2037.99,3472.78,3046.26,3485.00,600.33,597.99,20.52,0000 0000 0000 0000 000000
2017-08-26 00:20:29,-0.00,0.19,0.00,21.87,26.22,29.24,13.93,44.13,1015.64,2037.98,3472.78,3046.24,3485.00,600.08,597.77,20.57,0000 0000 0000 0000 000000
2017-08-26 00:25:30,-0.00,0.19,0.00,21.87,26.22,29.21,13.98,43.98,1015.64,2037.98,3472.71,3046.25,3485.00,600.09,597.51,20.62,0000 0000 0000 0000 000000
2017-08-26 00:30:31,0.01,0.19,0.00,21.87,26.20,29.21,13.89,43.86,1015.66,2037.98,3472.48,3046.32,3485.00,600.07,597.82,20.67,0000 0000 0000 0000 000000
2017-08-26 00:35:32,0.00,0.19,0.00,21.85,26.20,29.22,14.03,44.26,1015.66,2037.99,3472.26,3046.17,3484.99,600.55,598.34,20.72,0000 0000 0000 0000 000000
2017-08-26 00:40:34,0.00,0.19,0.00,21.84,26.20,29.21,13.94,44.01,1015.64,2037.99,3472.09,3046.12,3484.99,599.79,597.66,20.77,0000 0000 0000 0000 000000
2017-08-26 00:45:35,0.00,0.19,0.00,21.83,26.19,29.19,14.00,43.86,1015.64,2037.99,3472.03,3046.06,3484.99,600.58,598.22,20.82,0000 0000 0000 0000 000000
2017-08-26 00:50:36,-0.00,0.19,0.00,21.82,26.17,29.18,14.05,44.14,1015.75,2037.99,3472.01,3046.09,3484.99,600.45,598.36,20.87,0000 0000 0000 0000 000000
2017-08-26 00:55:37,0.01,0.20,0.00,21.82,26.17,29.19,13.97,44.02,1015.73,2037.99,3472.00,3046.01,3484.67,599.91,597.83,20.92,0000 0000 0000 0000 000000
2017-08-26 01:00:39,0.01,0.20,0.00,21.82,26.17,29.18,13.97,43.96,1015.70,2037.99,3471.83,3046.00,3484.18,600.32,598.07,20.97,0000 0000 0000 0000 000000
2017-08-26 01:05:40,0.01,0.20,0.00,21.81,26.16,29.17,13.96,43.98,1015.66,2037.99,3471.04,3045.93,3484.01,600.08,597.92,21.02,0000 0000 0000 0000 000000
2017-08-26 01:10:41,0.03,0.20,0.00,21.82,26.15,29.16,13.98,44.03,1015.66,2037.99,3470.37,3045.31,3483.99,600.03,597.79,21.08,0000 0000 0000 0000 000000
2017-08-26 01:15:42,0.01,0.20,0.00,21.81,26.15,29.15,13.93,43.98,1015.77,2037.99,3470.01,3045.03,3483.66,599.71,597.65,21.13,0000 0000 0000 0000 000000
2017-08-26 01:20:43,-0.00,0.20,0.00,21.79,26.15,29.14,14.03,44.10,1015.85,2037.99,3470.01,3045.03,3483.84,600.28,598.20,21.18,0000 0000 0000 0000 000000
2017-08-26 01:25:45,0.00,0.20,0.00,21.79,26.14,29.15,14.00,44.06,1015.78,2038.01,3470.00,3045.04,3483.85,599.74,597.67,21.23,0000 0000 0000 0000 000000
2017-08-26 01:30:46,0.00,0.20,0.00,21.78,26.13,29.15,13.94,44.07,1015.65,2038.00,3470.00,3045.03,3483.78,599.70,597.64,21.28,0000 0000 0000 0000 000000
2017-08-26 01:35:47,0.00,0.20,0.00,21.79,26.12,29.14,13.95,43.92,1015.65,2038.04,3470.00,3045.02,3483.71,599.75,597.68,21.33,0000 0000 0000 0000 000000
2017-08-26 01:40:49,0.00,0.20,0.00,21.79,26.12,29.14,13.98,44.00,1015.65,2038.01,3469.95,3045.00,3483.23,600.23,598.04,21.38,0000 0000 0000 0000 000000
2017-08-26 01:45:49,0.01,0.20,0.00,21.79,26.12,29.13,14.06,44.22,1015.70,2038.01,3469.55,3045.00,3483.03,600.74,598.56,21.43,0000 0000 0000 0000 000000
2017-08-26 01:50:51,0.00,0.20,0.00,21.79,26.12,29.11,14.00,44.01,1016.04,2038.03,3469.52,3045.00,3483.02,600.06,598.25,21.48,0000 0000 0000 0000 000000
2017-08-26 01:55:52,0.00,0.20,0.00,21.78,26.10,29.09,14.01,43.92,1016.10,2038.02,3469.22,3045.00,3483.00,599.54,597.78,21.53,0000 0000 0000 0000 000000
2017-08-26 02:00:53,0.00,0.20,0.00,21.77,26.10,29.10,13.98,43.90,1016.13,2038.01,3469.01,3044.99,3483.00,599.89,598.07,21.58,0000 0000 0000 0000 000000
2017-08-26 02:05:55,0.00,0.20,0.00,21.79,26.10,29.10,13.98,44.04,1016.13,2038.02,3468.96,3044.96,3482.99,599.66,597.78,21.63,0000 0000 0000 0000 000000
2017-08-26 02:10:56,0.05,0.20,0.00,21.77,26.10,29.13,13.94,44.08,1016.13,2038.05,3468.14,3044.23,3482.45,599.87,598.14,21.68,0000 0000 0000 0000 000000
2017-08-26 02:15:57,0.00,0.20,0.00,21.77,26.10,29.11,14.02,44.22,1016.13,2038.06,3467.99,3044.01,3482.02,600.01,598.24,21.73,0000 0000 0000 0000 000000
2017-08-26 02:20:58,0.01,0.20,0.00,21.77,26.10,29.09,13.92,44.05,1016.13,2038.03,3467.32,3043.96,3481.96,599.58,597.81,21.78,0000 0000 0000 0000 000000
2017-08-26 02:25:59,0.05,0.21,0.00,21.77,26.09,29.08,14.01,44.00,1016.13,2038.03,3466.40,3043.23,3481.17,599.72,597.94,21.83,0000 0000 0000 0000 000000
2017-08-26 02:31:01,0.00,0.21,0.00,21.77,26.08,29.08,13.97,44.00,1016.13,2038.05,3465.98,3043.00,3481.00,600.48,598.78,21.88,0000 0000 0000 0000 000000
2017-08-26 02:36:02,0.03,0.21,0.00,21.77,26.07,29.11,13.90,43.91,1016.13,2038.11,3465.31,3042.94,3480.73,599.76,598.11,21.93,0000 0000 0000 0000 000000
2017-08-26 02:41:03,0.03,0.21,0.00,21.77,26.07,29.09,14.09,44.42,1016.14,2038.07,3464.76,3042.28,3480.05,600.56,598.78,21.98,0000 0000 0000 0000 000000
2017-08-26 02:46:05,0.01,0.21,0.00,21.77,26.07,29.10,14.04,44.17,1016.15,2038.08,3464.06,3042.01,3479.99,600.00,598.17,22.03,0000 0000 0000 0000 000000
2017-08-26 02:51:06,0.00,0.21,0.00,21.77,26.07,29.07,13.94,44.00,1016.15,2038.20,3464.02,3042.00,3479.98,600.50,598.68,22.08,0000 0000 0000 0000 000000
2017-08-26 02:56:07,0.03,0.21,0.00,21.79,26.07,29.09,13.99,44.08,1016.21,2038.21,3463.60,3041.76,3479.50,599.92,598.09,22.13,0000 0000 0000 0000 000000
2017-08-26 03:01:08,0.44,0.22,0.00,21.78,26.07,29.08,13.97,44.63,1016.36,2038.07,3458.67,3036.32,3473.65,600.13,598.49,22.18,0000 0000 0000 0000 000000
2017-08-26 03:06:09,0.63,0.26,0.00,21.79,26.07,29.08,14.00,44.33,1016.50,2038.04,3447.93,3024.27,3460.68,599.84,598.32,22.23,0000 0000 0000 0000 000000
2017-08-26 03:11:11,0.08,0.27,0.00,21.80,26.07,29.07,13.98,44.02,1016.55,2038.02,3445.07,3021.12,3457.40,599.38,597.85,22.28,0000 0000 0000 0000 000000
2017-08-26 03:16:12,0.00,0.27,0.00,21.80,26.07,29.06,14.01,44.12,1016.55,2038.04,3444.90,3021.00,3457.03,599.82,598.30,22.33,0000 0000 0000 0000 000000
2017-08-26 03:21:13,0.01,0.27,0.00,21.80,26.07,29.07,13.96,43.96,1016.61,2038.03,3444.22,3021.00,3457.00,599.81,598.19,22.38,0000 0000 0000 0000 000000
2017-08-26 03:26:14,0.00,0.27,0.00,21.79,26.06,29.06,13.94,44.01,1016.60,2038.05,3444.01,3021.00,3457.00,599.90,598.37,22.43,0000 0000 0000 0000 000000
2017-08-26 03:31:16,0.00,0.27,0.00,21.80,26.07,29.04,14.06,44.38,1016.60,2038.06,3443.99,3020.99,3457.00,600.71,599.01,22.48,0000 0000 0000 0000 000000
2017-08-26 03:36:17,0.01,0.27,0.00,21.81,26.06,29.05,13.87,43.77,1016.62,2038.12,3443.98,3020.98,3456.98,599.45,597.92,22.53,0000 0000 0000 0000 000000
2017-08-26 03:41:18,0.02,0.27,0.00,21.82,26.06,29.08,14.07,44.06,1016.62,2038.11,3443.53,3020.79,3456.85,599.99,598.40,22.58,0000 0000 0000 0000 000000
2017-08-26 03:46:20,0.02,0.27,0.00,21.82,26.06,29.08,14.04,44.08,1016.62,2038.05,3443.03,3020.18,3456.19,600.11,598.71,22.63,0000 0000 0000 0000 000000
2017-08-26 03:51:21,-0.00,0.27,0.00,21.83,26.07,29.11,13.97,43.92,1016.62,2038.03,3442.99,3020.02,3456.02,599.63,598.03,22.68,0000 0000 0000 0000 000000
2017-08-26 03:56:23,0.00,0.27,0.00,21.84,26.07,29.08,13.99,44.30,1016.65,2038.08,3442.90,3020.01,3456.00,600.23,598.70,22.73,0000 0000 0000 0000 000000
2017-08-26 04:01:24,0.01,0.28,0.00,21.84,26.07,29.10,13.97,44.45,1016.83,2038.05,3442.37,3020.00,3456.00,599.82,598.42,22.78,0000 0000 0000 0000 000000
2017-08-26 04:06:25,0.00,0.28,0.00,21.83,26.07,29.08,13.96,44.45,1017.02,2038.06,3442.06,3020.00,3455.99,600.50,599.11,22.83,0000 0000 0000 0000 000000
2017-08-26 04:11:27,-0.00,0.28,0.00,21.83,26.07,29.08,14.00,44.23,1017.05,2038.06,3442.06,3019.99,3455.98,600.26,599.03,22.88,0000 0000 0000 0000 000000
2017-08-26 04:16:28,0.00,0.28,0.00,21.83,26.07,29.09,14.07,44.14,1017.06,2038.04,3442.01,3019.98,3455.97,600.01,598.66,22.93,0000 0000 0000 0000 000000
2017-08-26 04:21:29,0.00,0.28,0.00,21.84,26.07,29.09,13.92,43.87,1017.08,2038.05,3441.99,3019.97,3455.92,599.66,598.38,22.98,0000 0000 0000 0000 000000
2017-08-26 04:26:31,0.00,0.28,0.00,21.84,26.07,29.09,13.98,43.98,1017.05,2038.03,3441.99,3019.95,3455.70,599.92,598.49,23.03,0000 0000 0000 0000 000000
2017-08-26 04:31:32,0.01,0.28,0.00,21.85,26.07,29.11,14.01,44.08,1016.75,2038.02,3441.96,3019.78,3455.29,600.09,598.62,23.08,0000 0000 0000 0000 000000
2017-08-26 04:36:33,0.04,0.28,0.00,21.84,26.07,29.11,13.97,43.99,1016.71,2038.03,3441.36,3019.17,3455.05,599.95,598.47,23.13,0000 0000 0000 0000 000000
2017-08-26 04:41:34,0.00,0.28,0.00,21.86,26.07,29.10,13.97,44.08,1016.87,2038.02,3441.02,3019.02,3455.00,600.00,598.37,23.18,0000 0000 0000 0000 000000
2017-08-26 04:46:36,0.01,0.28,0.00,21.86,26.07,29.10,14.01,44.11,1016.90,2038.00,3440.64,3018.99,3454.85,600.09,598.50,23.23,0000 0000 0000 0000 000000
2017-08-26 04:51:37,0.02,0.28,0.00,21.86,26.08,29.09,14.00,44.62,1016.87,2038.01,3440.04,3018.75,3454.20,600.16,598.60,23.28,0000 0000 0000 0000 000000
2017-08-26 04:56:38,0.01,0.28,0.00,21.86,26.09,29.08,14.09,44.34,1016.95,2038.01,3439.99,3018.20,3454.01,600.51,599.02,23.33,0000 0000 0000 0000 000000
2017-08-26 05:01:39,0.00,0.28,0.00,21.87,26.09,29.09,13.98,44.15,1017.08,2038.03,3439.98,3018.09,3454.00,600.10,598.83,23.38,0000 0000 0000 0000 000000
2017-08-26 05:06:40,0.01,0.28,0.00,21.87,26.10,29.09,14.03,44.10,1017.09,2038.02,3439.40,3018.01,3453.99,599.98,598.51,23.43,0000 0000 0000 0000 000000
2017-08-26 05:11:41,0.00,0.28,0.00,21.86,26.10,29.09,14.04,44.18,1017.10,2038.02,3439.02,3018.00,3453.95,599.95,598.57,23.48,0000 0000 0000 0000 000000
2017-08-26 05:16:43,0.00,0.28,0.00,21.87,26.10,29.13,13.96,44.06,1017.10,2038.02,3439.00,3018.00,3453.80,600.08,598.54,23.53,0000 0000 0000 0000 000000
2017-08-26 05:21:44,-0.00,0.28,0.00,21.87,26.10,29.10,14.01,44.17,1017.11,2038.03,3439.00,3018.00,3453.61,599.95,598.62,23.58,0000 0000 0000 0000 000000
2017-08-26 05:26:45,0.01,0.28,0.00,21.88,26.10,29.11,13.90,44.02,1017.15,2038.00,3438.91,3017.97,3453.15,599.31,598.16,23.63,0000 0000 0000 0000 000000
2017-08-26 05:31:46,0.02,0.28,0.00,21.88,26.10,29.11,14.07,44.17,1017.19,2038.00,3438.36,3017.65,3453.01,600.14,598.77,23.68,0000 0000 0000 0000 000000
2017-08-26 05:36:47,0.00,0.28,0.00,21.89,26.10,29.13,14.03,44.00,1017.22,2038.00,3438.07,3017.47,3453.00,599.81,598.39,23.73,0000 0000 0000 0000 000000
2017-08-26 05:41:48,0.00,0.28,0.00,21.89,26.10,29.11,13.98,43.95,1017.34,2038.00,3438.00,3017.17,3453.00,600.34,599.01,23.78,0000 0000 0000 0000 000000
2017-08-26 05:46:49,0.00,0.28,0.00,21.89,26.10,29.13,13.92,43.86,1017.58,2038.01,3438.00,3017.11,3452.99,599.89,598.80,23.83,0000 0000 0000 0000 000000
2017-08-26 05:51:50,0.00,0.28,0.00,21.90,26.11,29.13,14.04,43.99,1017.59,2038.01,3438.00,3017.02,3452.97,600.04,598.98,23.88,0000 0000 0000 0000 000000
2017-08-26 05:56:52,0.02,0.29,0.00,21.91,26.12,29.15,13.97,44.19,1017.59,2038.01,3437.36,3016.99,3452.42,600.12,599.00,23.93,0000 0000 0000 0000 000000
2017-08-26 06:01:53,0.00,0.29,0.00,21.91,26.12,29.15,13.95,44.33,1017.58,2038.01,3437.01,3016.97,3452.02,600.17,599.03,23.98,0000 0000 0000 0000 000000
2017-08-26 06:06:54,0.00,0.29,0.00,21.90,26.12,29.14,14.12,44.92,1017.59,2038.00,3436.97,3016.79,3452.00,600.58,599.37,24.03,0000 0000 0000 0000 000000
2017-08-26 06:11:55,0.01,0.29,0.00,21.90,26.12,29.13,14.03,44.40,1017.59,2038.01,3436.94,3016.42,3452.00,600.04,598.68,24.08,0000 0000 0000 0000 000000
2017-08-26 06:16:57,0.03,0.29,0.00,21.91,26.12,29.13,14.04,44.13,1017.59,2038.00,3436.30,3016.09,3451.73,599.82,598.62,24.13,0000 0000 0000 0000 000000
2017-08-26 06:21:58,0.01,0.29,0.00,21.91,26.12,29.16,13.97,44.11,1017.61,2038.00,3435.96,3015.98,3451.04,599.65,598.48,24.19,0000 0000 0000 0000 000000
2017-08-26 06:26:59,0.00,0.29,0.00,21.92,26.12,29.16,14.06,44.22,1017.65,2038.01,3435.61,3015.98,3451.00,600.22,599.12,24.24,0000 0000 0000 0000 000000
2017-08-26 06:32:00,0.04,0.29,0.00,21.91,26.13,29.15,13.99,44.17,1017.63,2038.01,3434.82,3015.48,3450.60,600.75,599.61,24.29,0000 0000 0000 0000 000000
2017-08-26 06:37:02,0.01,0.29,0.00,21.92,26.13,29.16,14.01,43.98,1017.60,2038.00,3434.03,3014.99,3450.01,599.43,598.20,24.34,0000 0000 0000 0000 000000
2017-08-26 06:42:03,0.00,0.29,0.00,21.92,26.14,29.16,14.01,43.94,1017.61,2038.00,3433.99,3014.96,3449.99,600.02,598.83,24.39,0000 0000 0000 0000 000000
2017-08-26 06:47:04,0.00,0.29,0.00,21.93,26.15,29.18,14.01,43.97,1017.63,2038.00,3433.94,3014.89,3449.97,600.15,598.99,24.44,0000 0000 0000 0000 000000
2017-08-26 06:52:05,0.01,0.29,0.00,21.92,26.15,29.18,13.97,44.02,1017.64,2038.00,3433.93,3014.79,3449.91,599.95,598.70,24.49,0000 0000 0000 0000 000000
2017-08-26 06:57:07,0.02,0.29,0.00,21.93,26.15,29.17,14.01,44.16,1017.68,2038.00,3433.52,3014.57,3449.76,600.17,598.98,24.54,0000 0000 0000 0000 000000
2017-08-26 07:02:08,0.00,0.29,0.00,21.94,26.15,29.16,14.03,44.08,1017.66,2038.00,3433.36,3014.55,3449.70,600.09,598.91,24.59,0000 0000 0000 0000 000000
2017-08-26 07:07:09,0.01,0.29,0.00,21.94,26.15,29.17,13.99,44.02,1017.67,2038.00,3433.12,3014.38,3449.54,599.98,598.82,24.64,0000 0000 0000 0000 000000
2017-08-26 07:12:10,0.01,0.30,0.00,21.95,26.15,29.16,14.00,44.03,1017.90,2038.00,3433.01,3014.06,3449.11,600.07,598.95,24.69,0000 0000 0000 0000 000000
2017-08-26 07:17:12,0.02,0.30,0.00,21.94,26.15,29.17,14.03,44.02,1017.97,2038.00,3432.52,3013.91,3448.92,600.16,599.07,24.74,0000 0000 0000 0000 000000
2017-08-26 07:22:13,0.09,0.30,0.00,21.94,26.16,29.19,13.97,44.00,1018.03,2038.00,3429.54,3012.99,3447.70,600.20,599.06,24.79,0000 0000 0000 0000 000000
2017-08-26 07:27:14,0.02,0.30,0.00,21.95,26.17,29.19,14.04,44.02,1018.02,2038.00,3428.93,3012.53,3447.08,599.72,598.77,24.84,0000 0000 0000 0000 000000
2017-08-26 07:32:15,0.11,0.31,0.00,21.96,26.17,29.19,14.00,43.98,1018.02,2038.00,3426.42,3011.36,3445.96,599.99,598.89,24.89,0000 0000 0000 0000 000000
2017-08-26 07:37:17,0.05,0.31,0.00,21.97,26.17,29.20,13.99,43.89,1018.06,2038.00,3424.02,3010.09,3444.92,600.25,599.24,24.94,0000 0000 0000 0000 000000
2017-08-26 07:42:18,0.10,0.32,0.00,21.97,26.17,29.17,14.01,43.90,1018.08,2038.00,3421.66,3009.24,3443.46,600.00,599.02,24.99,0000 0000 0000 0000 000000
2017-08-26 07:47:19,0.00,0.32,0.00,21.97,26.17,29.18,13.98,43.98,1018.09,2038.00,3420.88,3008.98,3443.00,599.87,598.88,25.04,0000 0000 0000 0000 000000
2017-08-26 07:52:21,0.01,0.32,0.00,21.97,26.17,29.20,13.96,43.91,1018.22,2038.00,3420.33,3008.96,3442.99,599.71,598.78,25.09,0000 0000 0000 0000 000000
2017-08-26 07:57:22,0.01,0.32,0.00,21.97,26.17,29.21,14.06,44.13,1018.44,2038.00,3420.01,3008.72,3442.97,600.30,599.40,25.14,0000 0000 0000 0000 000000
2017-08-26 08:02:23,0.01,0.32,0.00,21.99,26.18,29.21,13.98,44.05,1018.57,2038.00,3420.00,3008.18,3442.92,599.80,599.03,25.19,0000 0000 0000 0000 000000
2017-08-26 08:07:24,-0.00,0.32,0.00,21.99,26.19,29.21,13.97,43.92,1018.56,2038.00,3420.00,3008.18,3442.85,599.96,599.20,25.24,0000 0000 0000 0000 000000
2017-08-26 08:12:25,0.01,0.32,0.00,21.98,26.20,29.20,14.01,44.02,1018.56,2038.00,3419.97,3008.04,3442.34,599.97,599.15,25.29,0000 0000 0000 0000 000000
2017-08-26 08:17:27,0.00,0.32,0.00,21.98,26.20,29.22,14.02,43.89,1018.57,2038.00,3419.84,3008.00,3442.01,600.22,599.42,25.34,0000 0000 0000 0000 000000
2017-08-26 08:22:28,0.00,0.32,0.00,21.97,26.20,29.23,14.08,44.45,1018.57,2038.00,3419.41,3008.00,3442.00,600.54,599.76,25.39,0000 0000 0000 0000 000000
2017-08-26 08:27:29,0.00,0.32,0.00,21.97,26.20,29.23,13.92,43.94,1018.56,2038.00,3419.18,3008.00,3442.00,599.13,598.33,25.44,0000 0000 0000 0000 000000
2017-08-26 08:32:31,0.00,0.32,0.00,21.97,26.20,29.22,14.04,43.97,1018.56,2037.99,3419.15,3008.00,3442.00,600.08,599.35,25.49,0000 0000 0000 0000 000000
2017-08-26 08:37:32,0.00,0.32,0.00,21.97,26.20,29.22,13.87,43.98,1018.57,2037.99,3419.01,3008.00,3442.00,599.47,598.72,25.54,0000 0000 0000 0000 000000
2017-08-26 08:42:33,0.00,0.32,0.00,21.98,26.20,29.24,13.98,44.19,1018.57,2037.99,3419.01,3007.99,3441.99,599.70,598.96,25.59,0000 0000 0000 0000 000000
2017-08-26 08:47:34,0.00,0.32,0.00,21.97,26.20,29.23,14.00,44.06,1018.57,2037.98,3419.00,3007.98,3441.97,600.10,599.37,25.64,0000 0000 0000 0000 000000
2017-08-26 08:52:36,0.00,0.32,0.00,21.97,26.20,29.23,13.99,43.90,1018.58,2037.99,3418.98,3007.96,3441.84,599.79,599.11,25.69,0000 0000 0000 0000 000000
2017-08-26 08:57:37,-0.00,0.32,0.00,21.98,26.20,29.23,14.06,43.95,1018.57,2037.98,3418.98,3007.96,3441.78,599.95,599.20,25.74,0000 0000 0000 0000 000000
2017-08-26 09:02:39,-0.00,0.32,0.00,21.99,26.20,29.24,14.02,44.03,1018.59,2037.98,3418.96,3007.93,3441.63,599.96,599.08,25.79,0000 0000 0000 0000 000000
2017-08-26 09:07:40,0.01,0.32,0.00,21.98,26.20,29.21,14.05,44.18,1018.85,2037.98,3418.88,3007.88,3441.49,599.94,599.24,25.84,0000 0000 0000 0000 000000
2017-08-26 09:12:41,0.01,0.32,0.00,21.99,26.20,29.21,14.01,44.12,1018.84,2037.98,3418.47,3007.68,3441.13,600.15,599.53,25.89,0000 0000 0000 0000 000000
2017-08-26 09:17:43,0.02,0.32,0.00,21.97,26.20,29.22,14.01,44.02,1018.69,2037.98,3418.03,3007.11,3441.01,599.76,598.93,25.94,0000 0000 0000 0000 000000
2017-08-26 09:22:44,0.00,0.32,0.00,21.98,26.20,29.23,13.92,44.01,1018.67,2037.98,3418.00,3007.00,3441.00,599.88,599.24,25.99,0000 0000 0000 0000 000000
2017-08-26 09:27:45,0.01,0.32,0.00,21.98,26.20,29.23,14.00,44.09,1018.83,2037.97,3417.66,3006.88,3440.73,599.72,599.17,26.04,0000 0000 0000 0000 000000
2017-08-26 09:32:46,0.46,0.34,0.00,21.97,26.21,29.24,14.03,44.07,1018.98,2037.97,3411.66,3001.17,3434.13,600.02,599.52,26.09,0000 0000 0000 0000 000000
2017-08-26 09:37:48,1.19,0.38,0.00,21.97,26.20,29.24,13.99,43.93,1019.04,2037.95,3394.83,2985.11,3416.17,599.99,599.64,26.14,0000 0000 0000 0000 000000
2017-08-26 09:42:49,4.14,0.54,0.00,21.97,26.20,29.26,14.07,44.13,1019.05,2037.47,3330.30,2925.32,3350.06,600.58,600.20,26.19,0000 0000 0000 0000 000000
2017-08-26 09:47:50,0.95,0.65,0.00,21.98,26.20,29.25,14.02,44.13,1019.06,2037.16,3302.10,2899.22,3321.45,600.14,599.66,26.24,0000 0000 0000 0000 000000
2017-08-26 09:52:52,0.08,0.66,0.00,21.97,26.20,29.25,14.02,44.14,1019.06,2037.15,3299.38,2896.63,3318.56,600.29,599.89,26.29,0000 0000 0000 0000 000000
2017-08-26 09:57:53,0.10,0.67,0.17,21.97,26.20,29.23,14.02,44.05,1019.06,2037.25,3297.54,2894.99,3316.76,599.74,599.28,26.34,0000 0000 0000 0000 000000
2017-08-26 10:02:55,0.47,0.69,1.00,21.97,26.20,29.23,14.03,44.02,1019.06,2037.23,3290.14,2889.23,3310.55,599.63,599.24,26.39,0000 0000 0000 0000 000000
2017-08-26 10:07:56,0.46,0.70,1.00,21.97,26.20,29.22,14.04,44.03,1019.08,2037.18,3282.74,2883.39,3304.10,600.09,599.72,26.44,0000 0000 0000 0000 000000
2017-08-26 10:12:57,1.98,0.77,1.00,21.96,26.20,29.23,13.97,44.03,1019.07,2037.03,3255.39,2860.43,3279.00,599.76,599.38,26.49,0000 0000 0000 0000 000000
2017-08-26 10:17:58,3.94,0.94,1.00,21.95,26.20,29.22,13.97,44.03,1019.10,2037.00,3191.38,2805.03,3218.91,599.95,599.59,26.54,0000 0000 0000 0000 000000
2017-08-26 10:23:00,2.47,1.10,1.00,21.94,26.20,29.20,14.03,44.13,1019.41,2037.00,3143.75,2763.66,3173.90,600.32,600.09,26.59,0000 0000 0000 0000 000000
2017-08-26 10:28:01,1.98,1.20,1.17,21.94,26.20,29.24,14.03,44.14,1019.48,2036.99,3110.86,2735.86,3143.38,600.15,599.99,26.64,0000 0000 0000 0000 000000
2017-08-26 10:33:02,0.42,1.26,2.00,21.94,26.20,29.23,14.01,44.06,1019.51,2036.99,3096.39,2723.96,3130.57,600.02,599.87,26.69,0000 0000 0000 0000 000000
2017-08-26 10:38:04,1.11,1.28,2.00,21.94,26.20,29.23,14.06,44.64,1019.54,2036.98,3083.73,2713.64,3119.25,600.57,600.48,26.74,0000 0000 0000 0000 000000
2017-08-26 10:43:05,2.46,1.39,2.00,21.92,26.20,29.22,14.01,44.54,1019.55,2036.91,3045.28,2680.90,3083.47,599.50,599.14,26.79,0000 0000 0000 0000 000000
2017-08-26 10:48:06,0.68,1.47,2.00,21.92,26.20,29.21,13.91,44.18,1019.54,2036.95,3027.41,2665.98,3067.27,599.78,599.71,26.84,0000 0000 0000 0000 000000
2017-08-26 10:53:07,0.07,1.48,2.00,21.92,26.20,29.22,13.99,44.21,1019.55,2036.97,3025.31,2664.22,3065.51,600.03,599.94,26.89,0000 0000 0000 0000 000000
2017-08-26 10:58:09,0.01,1.48,1.80,21.92,26.20,29.23,14.03,44.17,1019.55,2036.96,3024.61,2663.98,3065.00,600.14,600.11,26.94,0000 0000 0000 0000 000000
2017-08-26 11:03:10,0.06,1.48,1.00,21.92,26.20,29.22,14.02,44.27,1019.55,2036.96,3023.68,2663.36,3064.42,599.69,599.68,26.99,0000 0000 0000 0000 000000
2017-08-26 11:08:11,0.08,1.48,1.00,21.92,26.20,29.21,14.12,44.74,1019.55,2036.96,3022.09,2662.25,3063.26,600.34,600.29,27.04,0000 0000 0000 0000 000000
2017-08-26 11:13:13,0.07,1.49,1.00,21.91,26.20,29.23,14.01,44.16,1019.55,2036.95,3020.74,2661.24,3062.13,599.94,599.89,27.09,0000 0000 0000 0000 000000
2017-08-26 11:18:14,0.01,1.49,1.00,21.90,26.19,29.20,14.17,44.63,1019.55,2036.96,3020.09,2661.02,3062.00,600.60,600.60,27.14,0000 0000 0000 0000 000000
2017-08-26 11:23:15,0.00,1.49,1.00,21.90,26.19,29.21,14.00,44.19,1019.55,2036.96,3020.01,2661.00,3061.99,599.85,599.82,27.19,0000 0000 0000 0000 000000
2017-08-26 11:28:16,0.00,1.49,0.77,21.90,26.18,29.20,13.97,44.17,1019.55,2036.97,3020.00,2661.00,3061.99,599.71,599.69,27.24,0000 0000 0000 0000 000000
2017-08-26 11:33:18,0.13,1.49,0.00,21.90,26.17,29.21,13.99,44.27,1019.55,2036.99,3018.52,2660.03,3060.70,599.70,599.61,27.29,0000 0000 0000 0000 000000
2017-08-26 11:38:19,0.24,1.51,0.00,21.89,26.17,29.21,14.10,44.33,1019.56,2036.98,3014.17,2657.07,3057.26,600.21,600.20,27.34,0000 0000 0000 0000 000000
2017-08-26 11:43:21,0.14,1.51,0.00,21.89,26.17,29.22,14.00,44.27,1019.56,2036.98,3011.15,2655.05,3054.93,599.90,600.08,27.39,0000 0000 0000 0000 000000
2017-08-26 11:48:22,0.10,1.52,0.00,21.89,26.17,29.20,13.99,44.22,1019.58,2036.98,3008.99,2653.59,3053.29,600.18,600.20,27.44,0000 0000 0000 0000 000000
2017-08-26 11:53:23,0.07,1.52,0.00,21.88,26.17,29.18,14.05,44.17,1019.60,2036.97,3007.49,2652.63,3052.12,600.20,600.27,27.50,0000 0000 0000 0000 000000
2017-08-26 11:58:24,-0.01,1.53,0.00,21.87,26.17,29.19,14.06,44.43,1019.71,2036.97,3007.10,2652.46,3052.00,600.74,600.96,27.55,0000 0000 0000 0000 000000
2017-08-26 12:03:25,0.00,1.53,0.00,21.87,26.17,29.18,13.97,44.77,1019.72,2036.96,3007.04,2652.40,3052.00,599.39,599.47,27.60,0000 0000 0000 0000 000000
2017-08-26 12:08:27,0.00,1.53,0.00,21.87,26.16,29.18,14.00,44.77,1019.84,2036.98,3007.08,2652.64,3052.00,599.86,600.04,27.65,0000 0000 0000 0000 000000
2017-08-26 12:13:28,0.01,1.53,0.00,21.86,26.15,29.17,13.99,44.83,1020.02,2036.98,3007.01,2652.49,3052.00,600.33,600.61,27.70,0000 0000 0000 0000 000000
2017-08-26 12:18:30,0.01,1.53,0.00,21.84,26.15,29.17,14.05,44.82,1019.99,2036.99,3006.92,2652.25,3051.96,600.10,600.38,27.75,0000 0000 0000 0000 000000
2017-08-26 12:23:31,0.03,1.53,0.00,21.84,26.15,29.19,14.07,44.47,1020.03,2036.99,3005.95,2651.89,3051.20,599.91,600.29,27.80,0000 0000 0000 0000 000000
2017-08-26 12:28:32,0.06,1.53,0.00,21.84,26.15,29.18,14.12,44.37,1020.03,2036.99,3005.04,2651.07,3050.55,600.20,600.46,27.85,0000 0000 0000 0000 000000
2017-08-26 12:33:33,0.01,1.53,0.00,21.83,26.15,29.18,14.04,44.37,1020.03,2036.99,3004.49,2651.00,3050.03,599.83,600.19,27.90,0000 0000 0000 0000 000000
2017-08-26 12:38:35,0.00,1.53,0.00,21.82,26.14,29.17,14.07,44.30,1020.03,2036.99,3004.03,2650.99,3050.00,600.03,600.54,27.95,0000 0000 0000 0000 000000
2017-08-26 12:43:36,0.00,1.53,0.00,21.82,26.13,29.14,14.02,44.23,1020.04,2036.99,3004.02,2650.99,3050.00,599.71,600.09,28.00,0000 0000 0000 0000 000000
2017-08-26 12:48:37,0.00,1.53,0.00,21.83,26.12,29.13,14.10,44.43,1020.04,2036.99,3004.01,2650.99,3050.01,600.18,600.62,28.05,0000 0000 0000 0000 000000
2017-08-26 12:53:38,0.00,1.53,0.00,21.82,26.12,29.15,14.03,44.31,1020.04,2036.99,3004.01,2650.99,3050.01,599.89,600.25,28.10,0000 0000 0000 0000 000000